Date String (YYYY-MM-DD hh:mm:ss) UTC,Instrument flags,Ambient pressure (hPa),Sample flow (lpm),Bypass flow (lpm),Sample temperature (°C),Ambient temperature (°C),ASC tube jacket temperature (°C),LED temperature (°C),Box temperature (°C),Sample RH (%),Span deviation,Mass concentration (μg/m³),Mass concentration (μg/m³),Mass concentration (μg/m³)
DateTimeUTC,F1_M11,P_M11,Q1_M11,Q2_M11,T1_M11,T2_M11,T3_M11,T4_M11,T5_M11,U1_M11,ZSPAN_M11,X0_M11,X2_M11,X1_M11
2022-11-07 06:00:00,,0827.3,5.01,0.00,22.8,21.3,00.0,31.7,24.7,11.0,0000.0,0010.18,0002.81,0001.71
2022-11-07 06:01:00,,0827.3,5.00,0.00,22.8,21.3,00.0,31.6,24.7,11.1,0000.0,0009.73,0002.82,0001.72
2022-11-07 06:02:00,,0827.3,5.00,0.00,22.8,21.3,00.0,31.7,24.7,11.1,0000.0,0009.64,0002.76,0001.72
2022-11-07 06:03:00,,0827.2,5.00,0.00,22.8,21.3,00.0,31.6,24.7,11.0,0000.0,0009.25,0002.70,0001.72
2022-11-07 06:04:00,,0827.2,5.00,0.00,22.8,21.3,00.0,31.6,24.7,11.1,0000.0,0008.80,0002.68,0001.72
2022-11-07 06:05:00,,0827.2,4.99,0.00,22.8,21.3,00.0,31.6,24.7,11.2,0000.0,0008.81,0002.67,0001.71
2022-11-07 06:06:00,,0827.2,4.99,0.00,22.8,21.3,00.0,31.6,24.7,11.2,0000.0,0008.87,0002.73,0001.72
2022-11-07 06:07:00,,0827.2,5.00,0.00,22.8,21.3,00.0,31.6,24.7,11.2,0000.0,0008.54,0002.82,0001.74
2022-11-07 06:08:00,,0827.2,5.01,0.00,22.8,21.3,00.0,31.6,24.6,11.3,0000.0,0008.33,0002.85,0001.75
2022-11-07 06:09:00,,0827.2,4.99,0.00,22.8,21.3,00.0,31.6,24.6,11.3,0000.0,0007.99,0002.87,0001.77
2022-11-07 06:10:00,,0827.2,4.99,0.00,22.8,21.3,00.0,31.6,24.6,11.4,0000.0,0007.86,0002.92,0001.79
2022-11-07 06:11:00,,0827.2,5.01,0.00,22.7,21.3,00.0,31.6,24.6,11.3,0000.0,0007.72,0002.94,0001.82
2022-11-07 06:12:00,,0827.1,5.01,0.00,22.7,21.2,00.0,31.6,24.6,11.4,0000.0,0008.38,0002.97,0001.84
2022-11-07 06:13:00,,0827.1,5.01,0.00,22.7,21.2,00.0,31.6,24.5,11.4,0000.0,0008.68,0002.95,0001.86
2022-11-07 06:14:00,,0827.1,4.99,0.00,22.7,21.2,00.0,31.6,24.6,11.6,0000.0,0008.78,0002.98,0001.87
2022-11-07 06:15:00,,0827.1,4.99,0.00,22.7,21.2,00.0,31.6,24.5,11.7,0000.0,0009.02,0003.08,0001.91
2022-11-07 06:16:00,,0827.1,5.00,0.00,22.7,21.2,00.0,31.5,24.5,11.7,0000.0,0009.28,0003.06,0001.92
2022-11-07 06:17:00,,0827.1,5.01,0.00,22.7,21.1,00.0,31.5,24.5,11.6,0000.0,0009.08,0003.03,0001.93
2022-11-07 06:18:00,,0827.2,4.99,0.00,22.7,21.1,00.0,31.5,24.5,11.6,0000.0,0008.87,0003.00,0001.92
2022-11-07 06:19:00,,0827.1,5.00,0.00,22.7,21.1,00.0,31.5,24.5,11.6,0000.0,0008.98,0002.99,0001.90
2022-11-07 06:20:00,,0827.1,4.99,0.00,22.7,21.1,00.0,31.5,24.5,11.6,0000.0,0008.67,0002.96,0001.86
2022-11-07 06:21:00,,0827.2,5.00,0.00,22.6,21.1,00.0,31.5,24.4,11.6,0000.0,0008.48,0002.90,0001.86
2022-11-07 06:22:00,,0827.2,5.01,0.00,22.6,21.1,00.0,31.5,24.4,11.6,0000.0,0008.92,0002.89,0001.85
2022-11-07 06:23:00,,0827.3,5.00,0.00,22.6,21.1,00.0,31.5,24.4,11.6,0000.0,0009.50,0002.89,0001.84
2022-11-07 06:24:00,,0827.5,4.99,0.00,22.6,21.0,00.0,31.5,24.4,11.6,0000.0,0008.91,0002.90,0001.84
2022-11-07 06:25:00,,0827.3,5.00,0.00,22.6,21.0,00.0,31.5,24.5,11.6,0000.0,0009.25,0002.90,0001.83
2022-11-07 06:26:00,,0827.4,5.01,0.00,22.6,21.0,00.0,31.5,24.5,11.6,0000.0,0009.17,0002.86,0001.84
2022-11-07 06:27:00,,0827.4,5.00,0.00,22.6,21.0,00.0,31.5,24.4,11.7,0000.0,0009.34,0002.91,0001.83
2022-11-07 06:28:00,,0827.3,4.99,0.00,22.6,21.0,00.0,31.4,24.4,11.6,0000.0,0008.83,0002.89,0001.83
2022-11-07 06:29:00,,0827.1,5.00,0.00,22.6,21.0,00.0,31.4,24.4,11.6,0000.0,0008.77,0002.83,0001.84
2022-11-07 06:30:00,,0827.0,5.01,0.00,22.5,21.0,00.0,31.4,24.4,11.7,0000.0,0008.54,0002.87,0001.85
2022-11-07 06:31:00,,0827.0,5.00,0.00,22.5,21.0,00.0,31.4,24.3,11.7,0000.0,0008.53,0002.87,0001.87
2022-11-07 06:32:00,,0827.1,5.00,0.00,22.5,21.0,00.0,31.4,24.3,11.7,0000.0,0009.13,0002.87,0001.88
2022-11-07 06:33:00,,0827.0,5.00,0.00,22.5,21.0,00.0,31.4,24.3,11.7,0000.0,0008.95,0002.87,0001.87
2022-11-07 06:34:00,,0827.0,5.00,0.00,22.5,21.0,00.0,31.4,24.3,11.7,0000.0,0008.02,0002.84,0001.87
2022-11-07 06:35:00,,0827.0,5.01,0.00,22.5,21.0,00.0,31.4,24.3,11.7,0000.0,0008.04,0002.91,0001.86
2022-11-07 06:36:00,,0827.0,5.00,0.00,22.5,21.0,00.0,31.4,24.3,11.7,0000.0,0007.88,0002.94,0001.87
2022-11-07 06:37:00,,0827.1,5.00,0.00,22.5,21.0,00.0,31.3,24.3,11.7,0000.0,0008.08,0002.97,0001.87
2022-11-07 06:38:00,,0827.0,4.99,0.00,22.4,20.9,00.0,31.3,24.3,11.7,0000.0,0008.22,0002.97,0001.86
2022-11-07 06:39:00,,0827.1,5.00,0.00,22.4,20.9,00.0,31.3,24.2,11.7,0000.0,0008.56,0003.02,0001.88
2022-11-07 06:40:00,,0826.9,5.01,0.00,22.4,20.9,00.0,31.3,24.2,11.8,0000.0,0009.02,0003.05,0001.87
2022-11-07 06:41:00,,0827.0,5.02,0.00,22.4,20.9,00.0,31.3,24.2,11.8,0000.0,0008.99,0003.03,0001.88
2022-11-07 06:42:00,,0826.9,5.00,0.00,22.4,20.9,00.0,31.3,24.2,11.9,0000.0,0009.19,0003.05,0001.90
2022-11-07 06:43:00,,0826.9,5.00,0.00,22.4,20.9,00.0,31.3,24.2,11.8,0000.0,0008.51,0003.02,0001.91
2022-11-07 06:44:00,,0826.9,5.00,0.00,22.4,20.9,00.0,31.3,24.2,11.9,0000.0,0008.47,0003.06,0001.94
2022-11-07 06:45:00,,0827.1,5.00,0.00,22.4,20.9,00.0,31.3,24.2,11.8,0000.0,0008.45,0003.07,0001.95
2022-11-07 06:46:00,,0827.0,5.00,0.00,22.4,20.9,00.0,31.3,24.2,11.8,0000.0,0008.78,0003.03,0001.96
2022-11-07 06:47:00,,0827.1,4.99,0.00,22.4,20.9,00.0,31.3,24.2,11.7,0000.0,0009.20,0003.04,0001.96
2022-11-07 06:48:00,,0826.9,5.00,0.00,22.4,20.9,00.0,31.2,24.2,11.7,0000.0,0008.92,0003.01,0001.94
2022-11-07 06:49:00,,0826.9,5.01,0.00,22.4,20.8,00.0,31.2,24.2,11.7,0000.0,0008.70,0002.97,0001.94
2022-11-07 06:50:00,,0826.9,5.00,0.00,22.3,20.8,00.0,31.2,24.2,11.7,0000.0,0008.47,0002.95,0001.95
2022-11-07 06:51:00,,0827.0,4.99,0.00,22.3,20.8,00.0,31.2,24.1,11.7,0000.0,0008.52,0002.94,0001.95
2022-11-07 06:52:00,,0826.9,5.00,0.00,22.3,20.8,00.0,31.2,24.2,11.8,0000.0,0008.71,0002.93,0001.96
2022-11-07 06:53:00,,0826.9,5.01,0.00,22.3,20.8,00.0,31.2,24.2,11.8,0000.0,0008.59,0002.96,0001.96
2022-11-07 06:54:00,,0826.9,5.01,0.00,22.3,20.8,00.0,31.2,24.2,12.0,0000.0,0008.58,0003.01,0001.97
2022-11-07 06:55:00,,0826.9,5.00,0.00,22.3,20.8,00.0,31.2,24.2,11.9,0000.0,0008.53,0003.05,0001.97
2022-11-07 06:56:00,,0826.8,5.00,0.00,22.3,20.8,00.0,31.2,24.1,11.9,0000.0,0008.53,0003.04,0001.98
2022-11-07 06:57:00,,0826.8,5.00,0.00,22.3,20.8,00.0,31.2,24.1,12.0,0000.0,0008.04,0003.02,0001.98
2022-11-07 06:58:00,,0826.9,5.00,0.00,22.3,20.8,00.0,31.2,24.1,11.9,0000.0,0007.47,0003.01,0002.00
2022-11-07 06:59:00,,0827.0,5.00,0.00,22.3,20.8,00.0,31.1,24.1,11.9,0000.0,0007.68,0003.09,0002.03
